FW8891 Weather Reports


Display with metric or nautical units.
time (UTC)temp
F
wind
direction
speed
MPH
gust
MPH
rain 1hr
in
rain 24hr
in
rain mn
in
humidity
%
barometer
mb
20260502164102 84 77 6.0 11.0 0.00 0.00 0.00 23 1015.3
20260502163559 84 115 6.0 11.0 0.00 0.00 0.00 23 1015.3
20260502163059 83 109 4.0 12.0 0.00 0.00 0.00 23 1015.3
20260502162559 83 150 5.0 12.0 0.00 0.00 0.00 23 1015.2
20260502162100 83 91 3.0 9.0 0.00 0.00 0.00 23 1015.3
20260502161601 83 119 4.0 9.0 0.00 0.00 0.00 23 1015.2
20260502161059 83 95 4.0 7.0 0.00 0.00 0.00 23 1015.2
20260502160559 83 98 4.0 8.0 0.00 0.00 0.00 23 1015.2
20260502152104 81 56 5.0 12.0 0.00 0.00 0.00 23 1014.7
20260502151612 80 42 5.0 12.0 0.00 0.00 0.00 23 1014.7
20260502151102 80 68 5.0 11.0 0.00 0.00 0.00 23 1014.6
20260502150559 80 49 4.0 11.0 0.00 0.00 0.00 24 1014.6
20260502150103 79 56 5.0 11.0 0.00 0.00 0.00 24 1014.6
20260502130602 65 0 0.0 0.0 0.00 0.00 0.00 32 1013.4
20260502130113 65 0 0.0 0.0 0.00 0.00 0.00 33 1013.2
20260502123601 65 0 0.0 0.0 0.00 0.00 0.00 32 1012.8
20260502123106 65 0 0.0 0.0 0.00 0.00 0.00 34 1012.9
20260502122602 65 0 0.0 0.0 0.00 0.00 0.00 34 1012.9
20260502122059 65 0 0.0 0.0 0.00 0.00 0.00 33 1012.7
20260502121609 65 0 0.0 0.0 0.00 0.00 0.00 34 1012.7
20260502121101 65 0 0.0 0.0 0.00 0.00 0.00 33 1012.5
20260502120558 66 0 0.0 0.0 0.00 0.00 0.00 32 1012.5
20260502120104 66 0 0.0 0.0 0.00 0.00 0.00 33 1012.5
20260502115603 65 0 0.0 0.0 0.00 0.00 0.00 33 1012.4
20260502115059 65 0 0.0 0.0 0.00 0.00 0.00 34 1012.5
20260502114602 65 0 0.0 0.0 0.00 0.00 0.00 34 1012.4
20260502114100 65 0 0.0 0.0 0.00 0.00 0.00 35 1012.4
20260502113603 65 0 0.0 0.0 0.00 0.00 0.00 34 1012.3
20260502113100 66 0 0.0 0.0 0.00 0.00 0.00 34 1012.4
20260502112601 66 0 0.0 1.0 0.00 0.00 0.00 33 1012.4
20260502112100 66 0 0.0 1.0 0.00 0.00 0.00 33 1012.3
20260502111602 67 0 0.0 1.0 0.00 0.00 0.00 33 1012.4
20260502111059 67 0 0.0 1.0 0.00 0.00 0.00 32 1012.4
20260502110601 67 0 0.0 0.0 0.00 0.00 0.00 32 1012.4
20260502105559 67 0 0.0 1.0 0.00 0.00 0.00 32 1012.4
20260502105058 68 0 0.0 1.0 0.00 0.00 0.00 32 1012.4
20260502104558 68 0 0.0 0.0 0.00 0.00 0.00 32 1012.4
20260502104059 68 0 0.0 1.0 0.00 0.00 0.00 30 1012.3
20260502103600 69 0 0.0 1.0 0.00 0.00 0.00 29 1012.3
20260502103106 70 0 0.0 1.0 0.00 0.00 0.00 29 1012.3
20260502102558 70 0 0.0 2.0 0.00 0.00 0.00 28 1012.2
20260502102058 71 0 0.0 2.0 0.00 0.00 0.00 28 1012.2
20260502101621 72 123 0.0 2.0 0.00 0.00 0.00 27 1012.2
20260502101059 73 127 0.0 2.0 0.00 0.00 0.00 27 1012.1
20260502100600 74 91 0.0 1.0 0.00 0.00 0.00 27 1012.1
20260502100116 74 0 0.0 3.0 0.00 0.00 0.00 26 1012.1
20260502091058 76 20 2.0 5.0 0.00 0.00 0.00 25 1011.9
20260502090559 76 76 2.0 8.0 0.00 0.00 0.00 25 1011.8
20260502080108 77 50 3.0 6.0 0.00 0.00 0.00 23 1011.8
20260502071105 76 49 3.0 7.0 0.00 0.00 0.00 23 1011.6
20260502070558 76 8 4.0 7.0 0.00 0.00 0.00 23 1011.5
20260502065558 76 307 2.0 7.0 0.00 0.00 0.00 24 1011.5
20260502065058 75 338 3.0 7.0 0.00 0.00 0.00 23 1011.3
20260502064602 75 1 4.0 7.0 0.00 0.00 0.00 23 1011.4
20260502064101 75 342 4.0 7.0 0.00 0.00 0.00 23 1011.3
20260502063559 75 342 3.0 6.0 0.00 0.00 0.00 23 1011.3
20260502063106 74 340 4.0 6.0 0.00 0.00 0.00 22 1011.2
20260502062602 74 314 3.0 5.0 0.00 0.00 0.00 22 1011.2
20260502062101 75 322 2.0 6.0 0.00 0.00 0.00 21 1011.2
20260502061601 75 315 3.0 6.0 0.00 0.00 0.00 21 1011.0
20260502061059 74 315 2.0 6.0 0.00 0.00 0.00 22 1010.9
20260502060558 74 333 1.0 3.0 0.00 0.00 0.00 23 1010.9
20260502060113 75 342 1.0 3.0 0.00 0.00 0.00 22 1010.9
20260502055558 75 292 1.0 3.0 0.00 0.00 0.00 22 1010.7
20260502055058 75 0 0.0 0.0 0.00 0.00 0.00 23 1010.7
20260502054604 76 0 0.0 2.0 0.00 0.00 0.00 22 1010.7
20260502054058 76 0 0.0 2.0 0.00 0.00 0.00 23 1010.6
20260502053601 77 0 0.0 2.0 0.00 0.00 0.00 22 1010.6
20260502053107 78 264 0.0 2.0 0.00 0.00 0.00 22 1010.5
20260502052559 78 249 0.0 2.0 0.00 0.00 0.00 22 1010.5
20260502052104 78 260 1.0 3.0 0.00 0.00 0.00 22 1010.6
20260502051603 79 243 0.0 3.0 0.00 0.00 0.00 21 1010.4
20260502051058 79 239 1.0 7.0 0.00 0.00 0.00 22 1010.5
20260502050601 79 285 3.0 7.0 0.00 0.00 0.00 22 1010.6
20260502045559 78 247 1.0 4.0 0.00 0.00 0.00 24 1010.4
20260502045059 78 203 2.0 4.0 0.00 0.00 0.00 25 1010.2
20260502044559 78 131 1.0 3.0 0.00 0.00 0.00 25 1010.2
20260502044058 79 147 2.0 3.0 0.00 0.00 0.00 25 1010.2
20260502043559 79 173 2.0 3.0 0.00 0.00 0.00 24 1010.2
20260502043127 79 146 1.0 4.0 0.00 0.00 0.00 25 1010.1
20260502042558 80 139 1.0 4.0 0.00 0.00 0.00 25 1010.2
20260502042101 80 150 2.0 5.0 0.00 0.00 0.00 24 1010.1
20260502041559 80 160 2.0 5.0 0.00 0.00 0.00 24 1010.0
20260502041058 81 131 2.0 5.0 0.00 0.00 0.00 24 1010.0
20260502040605 81 165 3.0 4.0 0.00 0.00 0.00 24 1009.9
20260502040100 81 149 2.0 5.0 0.00 0.00 0.00 24 1009.9
20260502035600 81 127 3.0 5.0 0.00 0.00 0.00 24 1009.8
20260502035058 81 112 2.0 5.0 0.00 0.00 0.00 24 1009.8
20260502034612 81 180 2.0 5.0 0.00 0.00 0.00 24 1009.7
20260502034059 81 117 2.0 5.0 0.00 0.00 0.00 24 1009.7
20260502033559 82 169 2.0 4.0 0.00 0.00 0.00 23 1009.6
20260502033105 82 130 2.0 6.0 0.00 0.00 0.00 23 1009.6
20260502032558 82 115 2.0 6.0 0.00 0.00 0.00 23 1009.6
20260502032101 83 143 2.0 4.0 0.00 0.00 0.00 22 1009.5
20260502031559 83 157 2.0 4.0 0.00 0.00 0.00 22 1009.4
20260502031058 83 162 2.0 5.0 0.00 0.00 0.00 22 1009.4
20260502030558 83 129 3.0 6.0 0.00 0.00 0.00 22 1009.3
20260502030101 83 190 3.0 6.0 0.00 0.00 0.00 22 1009.3
20260502025601 83 119 3.0 5.0 0.00 0.00 0.00 22 1009.2
20260502025058 83 148 2.0 6.0 0.00 0.00 0.00 22 1009.2
20260502024604 84 134 3.0 6.0 0.00 0.00 0.00 22 1009.1
20260502024102 84 184 2.0 7.0 0.00 0.00 0.00 22 1009.0
20260502023602 84 114 3.0 7.0 0.00 0.00 0.00 22 1009.0
20260502023111 84 177 3.0 6.0 0.00 0.00 0.00 21 1009.0
20260502022603 84 150 3.0 5.0 0.00 0.00 0.00 21 1008.8
20260502022059 84 112 3.0 5.0 0.00 0.00 0.00 21 1008.7
20260502021608 85 118 2.0 5.0 0.00 0.00 0.00 21 1008.7
20260502021059 85 124 2.0 6.0 0.00 0.00 0.00 21 1008.7
20260502020559 86 124 2.0 6.0 0.00 0.00 0.00 21 1008.7
20260502015600 86 133 3.0 7.0 0.00 0.00 0.00 20 1008.5
20260502015100 87 109 4.0 8.0 0.00 0.00 0.00 20 1008.6
20260502014604 87 146 5.0 8.0 0.00 0.00 0.00 20 1008.5
20260502014100 87 146 3.0 6.0 0.00 0.00 0.00 19 1008.5
20260502013559 88 195 3.0 5.0 0.00 0.00 0.00 19 1008.4
20260502013104 88 147 3.0 6.0 0.00 0.00 0.00 19 1008.4
20260502012559 88 107 4.0 7.0 0.00 0.00 0.00 19 1008.3
20260502012059 88 152 4.0 7.0 0.00 0.00 0.00 19 1008.3
20260502011610 88 150 3.0 7.0 0.00 0.00 0.00 19 1008.3
20260502011105 88 129 3.0 7.0 0.00 0.00 0.00 19 1008.3
20260502010602 88 182 2.0 8.0 0.00 0.00 0.00 19 1008.4
20260502010059 88 146 4.0 8.0 0.00 0.00 0.00 19 1008.4
20260502005600 89 115 3.0 8.0 0.00 0.00 0.00 19 1008.4
20260502005102 89 93 3.0 7.0 0.00 0.00 0.00 18 1008.5
20260502004607 90 88 2.0 5.0 0.00 0.00 0.00 19 1008.6
20260502004059 90 158 1.0 8.0 0.00 0.00 0.00 17 1008.5
20260502003559 91 145 0.0 8.0 0.00 0.00 0.00 17 1008.6
20260502003058 90 180 3.0 7.0 0.00 0.00 0.00 17 1008.6
20260502002603 91 188 2.0 8.0 0.00 0.00 0.00 17 1008.6
20260502002058 90 219 4.0 8.0 0.00 0.00 0.00 17 1008.7
20260502001556 91 184 4.0 8.0 0.00 0.00 0.00 17 1008.7
20260502001101 90 220 1.0 9.0 0.00 0.00 0.00 18 1008.7
20260502000559 90 148 4.0 9.0 0.00 0.00 0.00 19 1008.8
20260502000115 91 212 5.0 10.0 0.00 0.00 0.00 18 1008.9
20260501235559 90 176 4.0 13.0 0.00 0.00 0.00 19 1008.8
20260501235100 90 141 5.0 13.0 0.00 0.00 0.00 19 1008.9
20260501234558 90 122 3.0 6.0 0.00 0.00 0.00 19 1008.9
20260501234102 91 238 3.0 7.0 0.00 0.00 0.00 19 1009.0
20260501233600 91 188 3.0 7.0 0.00 0.00 0.00 20 1008.9
20260501233100 90 101 1.0 7.0 0.00 0.00 0.00 20 1008.9
20260501232559 89 344 1.0 9.0 0.00 0.00 0.00 20 1009.0
20260501232100 90 107 4.0 9.0 0.00 0.00 0.00 19 1009.1
20260501231611 90 184 4.0 9.0 0.00 0.00 0.00 20 1009.1
20260501231059 90 244 4.0 8.0 0.00 0.00 0.00 20 1009.2
20260501230559 90 255 3.0 7.0 0.00 0.00 0.00 20 1009.2
20260501230059 90 230 3.0 7.0 0.00 0.00 0.00 20 1009.2
20260501225559 91 240 2.0 7.0 0.00 0.00 0.00 20 1009.2
20260501225101 91 266 4.0 7.0 0.00 0.00 0.00 20 1009.3
20260501224603 90 282 0.0 6.0 0.00 0.00 0.00 21 1009.3
20260501224059 90 264 2.0 9.0 0.00 0.00 0.00 21 1009.4
20260501223600 90 315 4.0 10.0 0.00 0.00 0.00 21 1009.4
20260501223118 91 234 5.0 10.0 0.00 0.00 0.00 21 1009.4
20260501222559 91 271 2.0 11.0 0.00 0.00 0.00 22 1009.5
20260501222102 91 278 4.0 11.0 0.00 0.00 0.00 22 1009.6
20260501221618 90 252 2.0 7.0 0.00 0.00 0.00 23 1009.6
20260501221059 90 221 2.0 8.0 0.00 0.00 0.00 23 1009.7
20260501220559 89 256 2.0 8.0 0.00 0.00 0.00 24 1009.8
20260501220104 89 335 5.0 9.0 0.00 0.00 0.00 22 1009.8
20260501215602 89 330 4.0 9.0 0.00 0.00 0.00 23 1010.0
20260501215059 89 259 1.0 8.0 0.00 0.00 0.00 23 1010.1
20260501214603 89 291 3.0 8.0 0.00 0.00 0.00 24 1010.2
20260501214100 88 287 3.0 6.0 0.00 0.00 0.00 25 1010.2
20260501213559 87 264 2.0 5.0 0.00 0.00 0.00 24 1010.3
20260501213058 88 62 1.0 3.0 0.00 0.00 0.00 23 1010.4
20260501212625 88 47 1.0 6.0 0.00 0.00 0.00 23 1010.6
20260501212059 88 0 1.0 7.0 0.00 0.00 0.00 23 1010.8
20260501211600 87 206 3.0 7.0 0.00 0.00 0.00 24 1010.9
20260501211059 88 277 1.0 6.0 0.00 0.00 0.00 24 1010.9
20260501210559 88 247 3.0 6.0 0.00 0.00 0.00 23 1011.0
20260501210058 89 212 4.0 6.0 0.00 0.00 0.00 23 1011.0
20260501205600 87 232 2.0 6.0 0.00 0.00 0.00 24 1011.0
20260501205100 86 106 1.0 4.0 0.00 0.00 0.00 25 1011.1
20260501204559 87 0 1.0 4.0 0.00 0.00 0.00 24 1011.2
20260501204103 87 340 1.0 4.0 0.00 0.00 0.00 24 1011.1
20260501203603 87 159 1.0 8.0 0.00 0.00 0.00 24 1011.2
20260501203059 86 208 3.0 8.0 0.00 0.00 0.00 26 1011.3
20260501202559 87 114 2.0 6.0 0.00 0.00 0.00 25 1011.4
20260501202059 87 140 3.0 8.0 0.00 0.00 0.00 25 1011.5
20260501201600 86 229 3.0 8.0 0.00 0.00 0.00 25 1011.5
20260501201059 87 193 3.0 8.0 0.00 0.00 0.00 26 1011.5
20260501200559 86 82 1.0 5.0 0.00 0.00 0.00 24 1011.7
20260501200059 85 165 1.0 5.0 0.00 0.00 0.00 26 1011.7
20260501195559 85 136 1.0 8.0 0.00 0.00 0.00 25 1011.7
20260501195100 86 120 3.0 9.0 0.00 0.00 0.00 26 1011.9
20260501194559 86 219 5.0 9.0 0.00 0.00 0.00 26 1011.8
20260501194102 86 113 2.0 9.0 0.00 0.00 0.00 26 1011.9
20260501193600 86 126 3.0 8.0 0.00 0.00 0.00 27 1012.0
20260501193058 85 195 2.0 8.0 0.00 0.00 0.00 27 1012.0
20260501192559 84 191 2.0 6.0 0.00 0.00 0.00 28 1012.1
20260501192059 84 63 0.0 12.0 0.00 0.00 0.00 29 1012.2
20260501191559 84 80 3.0 12.0 0.00 0.00 0.00 29 1012.3
20260501191101 84 86 4.0 11.0 0.00 0.00 0.00 29 1012.3
20260501190600 83 130 1.0 6.0 0.00 0.00 0.00 30 1012.4
20260501190115 83 126 3.0 8.0 0.00 0.00 0.00 30 1012.5
20260501185559 82 111 1.0 8.0 0.00 0.00 0.00 30 1012.5
20260501185059 82 79 3.0 8.0 0.00 0.00 0.00 30 1012.5
20260501184559 82 0 1.0 8.0 0.00 0.00 0.00 29 1012.7
20260501184059 83 188 3.0 8.0 0.00 0.00 0.00 29 1012.7
20260501183603 83 109 3.0 7.0 0.00 0.00 0.00 29 1012.8
20260501183102 83 105 4.0 7.0 0.00 0.00 0.00 29 1012.8
20260501182559 83 82 2.0 7.0 0.00 0.00 0.00 31 1012.9
20260501182104 82 214 3.0 7.0 0.00 0.00 0.00 31 1012.9
20260501181557 82 107 1.0 5.0 0.00 0.00 0.00 33 1013.0
20260501181103 81 49 2.0 6.0 0.00 0.00 0.00 32 1013.0
20260501180559 81 83 3.0 6.0 0.00 0.00 0.00 31 1013.1
20260501180057 82 60 3.0 5.0 0.00 0.00 0.00 31 1013.2
20260501175600 82 154 1.0 6.0 0.00 0.00 0.00 32 1013.2
20260501175059 81 0 1.0 6.0 0.00 0.00 0.00 32 1013.3
20260501174601 81 188 1.0 7.0 0.00 0.00 0.00 33 1013.4
20260501174059 80 151 1.0 7.0 0.00 0.00 0.00 33 1013.4
20260501173559 81 134 1.0 5.0 0.00 0.00 0.00 33 1013.4
20260501173102 80 191 2.0 5.0 0.00 0.00 0.00 34 1013.4
20260501172600 81 131 3.0 5.0 0.00 0.00 0.00 33 1013.4
20260501172059 80 256 2.0 4.0 0.00 0.00 0.00 34 1013.5